| time (UTC) | temp F | wind direction | speed knots | gust knots | rain 1hr in | rain 24hr in | rain mn in | humidity % | barometer mb |
| 20260507233801 | 33 | 281 | 1.7 | 1.7 | 0.00 | 0.00 | 0.00 | 71 | 1021.5 |
| 20260507231801 | 34 | 176 | 1.7 | 1.7 | 0.00 | 0.00 | 0.00 | 69 | 1021.5 |
| 20260507225801 | 35 | 190 | 0.9 | 0.9 | 0.00 | 0.00 | 0.00 | 65 | 1021.4 |
| 20260507223801 | 35 | 228 | 0.9 | 1.7 | 0.00 | 0.00 | 0.00 | 68 | 1021.4 |
| 20260507221801 | 36 | 128 | 0.9 | 0.9 | 0.00 | 0.00 | 0.00 | 63 | 1021.3 |
| 20260507215801 | 37 | 325 | 2.6 | 2.6 | 0.00 | 0.00 | 0.00 | 62 | 1020.3 |
| 20260507213801 | 36 | 127 | 1.7 | 1.7 | 0.00 | 0.00 | 0.00 | 64 | 1020.3 |
| 20260507211802 | 37 | 223 | 0.9 | 1.7 | 0.00 | 0.00 | 0.00 | 61 | 1020.3 |
| 20260507205802 | 40 | 183 | 1.7 | 1.7 | 0.00 | 0.00 | 0.00 | 54 | 1020.1 |
| 20260507203802 | 40 | 262 | 3.5 | 5.2 | 0.00 | 0.00 | 0.00 | 52 | 1020.1 |
| 20260507201802 | 41 | 261 | 2.6 | 3.5 | 0.00 | 0.00 | 0.00 | 51 | 1020.0 |
| 20260507195802 | 41 | 245 | 2.6 | 2.6 | 0.00 | 0.00 | 0.00 | 55 | 1020.1 |
| 20260507193802 | 45 | 138 | 0.0 | 0.0 | 0.00 | 0.00 | 0.00 | 42 | 1018.8 |
| 20260507191802 | 48 | 172 | 0.9 | 0.9 | 0.00 | 0.00 | 0.00 | 40 | 1018.7 |
| 20260507185802 | 49 | 207 | 1.7 | 2.6 | 0.00 | 0.00 | 0.00 | 37 | 1018.6 |
| 20260507183928 | 51 | 215 | 1.7 | 1.7 | 0.00 | 0.00 | 0.00 | 37 | 1018.5 |
| 20260507183802 | 51 | 215 | 1.7 | 1.7 | 0.00 | 0.00 | 0.00 | 37 | 1018.5 |
| 20260507182523 | 56 | 167 | 0.0 | 0.0 | 0.00 | 0.00 | 0.00 | 27 | 1017.1 |
| 20260507181802 | 56 | 167 | 0.0 | 0.0 | 0.00 | 0.00 | 0.00 | 27 | 1017.1 |
| 20260507175802 | 58 | 170 | 0.0 | 0.9 | 0.00 | 0.00 | 0.00 | 22 | 1017.1 |
| 20260507173947 | 57 | 191 | 1.7 | 2.6 | 0.00 | 0.00 | 0.00 | 22 | 1017.1 |
| 20260507173802 | 57 | 191 | 1.7 | 2.6 | 0.00 | 0.00 | 0.00 | 22 | 1017.1 |
| 20260507173118 | 58 | 171 | 0.0 | 0.0 | 0.00 | 0.00 | 0.00 | 21 | 1017.1 |
| 20260507171802 | 58 | 171 | 0.0 | 0.0 | 0.00 | 0.00 | 0.00 | 21 | 1017.1 |
| 20260507165802 | 58 | 24 | 0.9 | 1.7 | 0.00 | 0.00 | 0.00 | 22 | 1017.1 |
| 20260507163802 | 56 | 127 | 3.5 | 5.2 | 0.00 | 0.00 | 0.00 | 24 | 1017.1 |
| 20260507161802 | 56 | 167 | 3.5 | 6.1 | 0.00 | 0.00 | 0.00 | 23 | 1017.1 |
| 20260507155802 | 60 | 148 | 1.7 | 2.6 | 0.00 | 0.00 | 0.00 | 23 | 1017.0 |
| 20260507153802 | 58 | 232 | 0.9 | 1.7 | 0.00 | 0.00 | 0.00 | 22 | 1017.1 |
| 20260507151802 | 61 | 254 | 4.3 | 7.0 | 0.00 | 0.00 | 0.00 | 22 | 1016.9 |
| 20260507145802 | 58 | 192 | 1.7 | 1.7 | 0.00 | 0.00 | 0.00 | 23 | 1017.1 |
| 20260507143802 | 57 | 171 | 0.9 | 0.9 | 0.00 | 0.00 | 0.00 | 23 | 1017.1 |
| 20260507141802 | 59 | 228 | 0.9 | 1.7 | 0.00 | 0.00 | 0.00 | 24 | 1017.0 |
| 20260507135802 | 57 | 340 | 5.2 | 7.0 | 0.00 | 0.00 | 0.00 | 25 | 1017.1 |
| 20260507133802 | 57 | 150 | 3.5 | 6.1 | 0.00 | 0.00 | 0.00 | 26 | 1017.1 |
| 20260507131802 | 57 | 174 | 1.7 | 3.5 | 0.00 | 0.00 | 0.00 | 27 | 1017.1 |
| 20260507125802 | 54 | 129 | 3.5 | 5.2 | 0.00 | 0.00 | 0.00 | 30 | 1017.2 |
| 20260507123802 | 53 | 88 | 4.3 | 6.1 | 0.00 | 0.00 | 0.00 | 33 | 1017.3 |
| 20260507121802 | 56 | 145 | 4.3 | 5.2 | 0.00 | 0.00 | 0.00 | 29 | 1017.1 |
| 20260507115802 | 55 | 158 | 1.7 | 2.6 | 0.00 | 0.00 | 0.00 | 28 | 1017.1 |
| 20260507113802 | 58 | 138 | 0.0 | 0.0 | 0.00 | 0.00 | 0.00 | 27 | 1017.1 |
| 20260507111802 | 57 | 122 | 0.0 | 1.7 | 0.00 | 0.00 | 0.00 | 25 | 1017.1 |
| 20260507105802 | 53 | 164 | 0.9 | 0.9 | 0.00 | 0.00 | 0.00 | 28 | 1017.3 |
| 20260507103802 | 50 | 346 | 1.7 | 2.6 | 0.00 | 0.00 | 0.00 | 27 | 1017.4 |
| 20260507101802 | 50 | 173 | 0.9 | 1.7 | 0.00 | 0.00 | 0.00 | 29 | 1016.5 |
| 20260507095802 | 53 | 136 | 0.0 | 0.9 | 0.00 | 0.00 | 0.00 | 29 | 1016.3 |
| 20260507093802 | 54 | 336 | 2.6 | 3.5 | 0.00 | 0.00 | 0.00 | 29 | 1016.2 |
| 20260507091801 | 53 | 97 | 0.0 | 0.9 | 0.00 | 0.00 | 0.00 | 31 | 1016.3 |
| 20260507083802 | 53 | 162 | 0.9 | 1.7 | 0.00 | 0.00 | 0.00 | 36 | 1017.3 |
| 20260507081802 | 52 | 159 | 0.0 | 0.0 | 0.00 | 0.00 | 0.00 | 35 | 1016.3 |
| 20260507080809 | 53 | 154 | 0.0 | 0.9 | 0.00 | 0.00 | 0.00 | 33 | 1016.3 |
| 20260507075802 | 53 | 154 | 0.0 | 0.9 | 0.00 | 0.00 | 0.00 | 33 | 1016.3 |
| 20260507073802 | 49 | 138 | 0.9 | 0.9 | 0.00 | 0.00 | 0.00 | 38 | 1016.5 |
| 20260507071802 | 49 | 128 | 5.2 | 6.1 | 0.00 | 0.00 | 0.00 | 39 | 1016.5 |
| 20260507065802 | 48 | 145 | 2.6 | 3.5 | 0.00 | 0.00 | 0.00 | 40 | 1016.6 |
| 20260507063802 | 44 | 106 | 0.9 | 0.9 | 0.00 | 0.00 | 0.00 | 44 | 1016.8 |
| 20260507061802 | 45 | 152 | 1.7 | 2.6 | 0.00 | 0.00 | 0.00 | 45 | 1016.7 |
| 20260507055802 | 44 | 117 | 0.9 | 0.9 | 0.00 | 0.00 | 0.00 | 48 | 1016.8 |
| 20260507054002 | 43 | 153 | 1.7 | 1.7 | 0.00 | 0.00 | 0.00 | 48 | 1016.8 |
| 20260507053801 | 43 | 153 | 1.7 | 1.7 | 0.00 | 0.00 | 0.00 | 48 | 1016.8 |
| 20260507051802 | 40 | 131 | 0.0 | 0.0 | 0.00 | 0.00 | 0.00 | 48 | 1016.0 |
| 20260507045801 | 37 | 255 | 1.7 | 2.6 | 0.00 | 0.00 | 0.00 | 52 | 1016.2 |
| 20260507043801 | 36 | 123 | 0.0 | 0.9 | 0.00 | 0.00 | 0.00 | 53 | 1016.2 |
| 20260507041803 | 35 | 147 | 0.0 | 0.0 | 0.00 | 0.00 | 0.00 | 58 | 1016.3 |
| 20260507040702 | 34 | 163 | 0.0 | 0.0 | 0.00 | 0.00 | 0.00 | 59 | 1016.4 |
| 20260507035802 | 34 | 163 | 0.0 | 0.0 | 0.00 | 0.00 | 0.00 | 59 | 1016.4 |
| 20260507035156 | 34 | 144 | 0.0 | 0.9 | 0.00 | 0.00 | 0.00 | 56 | 1016.3 |
| 20260507033802 | 34 | 144 | 0.0 | 0.9 | 0.00 | 0.00 | 0.00 | 56 | 1016.3 |
| 20260507031802 | 33 | 173 | 0.0 | 0.0 | 0.00 | 0.00 | 0.00 | 61 | 1016.4 |
| 20260507025801 | 35 | 143 | 2.6 | 3.5 | 0.00 | 0.00 | 0.00 | 53 | 1016.3 |
| 20260507021802 | 32 | 169 | 0.9 | 0.9 | 0.00 | 0.00 | 0.00 | 64 | 1015.4 |
| 20260507015803 | 34 | 148 | 0.0 | 0.0 | 0.00 | 0.00 | 0.00 | 55 | 1015.3 |
| 20260507013801 | 35 | 325 | 0.9 | 0.9 | 0.00 | 0.00 | 0.00 | 53 | 1015.3 |
| 20260507011802 | 34 | 178 | 0.9 | 0.9 | 0.00 | 0.00 | 0.00 | 58 | 1015.4 |
| 20260507005802 | 34 | 173 | 1.7 | 1.7 | 0.00 | 0.00 | 0.00 | 58 | 1015.4 |
| 20260507005125 | 31 | 182 | 0.9 | 0.9 | 0.00 | 0.00 | 0.00 | 66 | 1015.4 |
| 20260507003802 | 31 | 182 | 0.9 | 0.9 | 0.00 | 0.00 | 0.00 | 66 | 1015.4 |
| 20260507001801 | 32 | 183 | 0.9 | 0.9 | 0.00 | 0.00 | 0.00 | 62 | 1015.4 |
| 20260506235801 | 33 | 174 | 0.9 | 0.9 | 0.00 | 0.00 | 0.00 | 62 | 1015.4 |